Sexton Summit, OR

9:30 AM PDT on April 24, 2018 (GMT -0700)
Sexton Summit

Weather History for KSXT - April, 2014

Change the Weather History Date:

Friday, April 4, 2014

  Actual Average Record
Temperature  
Mean Temperature 40 °F -  
Max Temperature 48 °F 44 °F 70 °F (2002)
Min Temperature 33 °F 31 °F 24 °F (2012)
Degree Days  
Heating Degree Days 24    
Moisture  
Dew Point 33 °F    
Average Humidity 83    
Maximum Humidity 96    
Minimum Humidity 60    
Precipitation  
Precipitation 0.00 in - - ()
Sea Level Pressure  
Sea Level Pressure 29.98 in    
Wind  
Wind Speed 7 mph (South)    
Max Wind Speed 12 mph    
Max Gust Speed -    
Visibility 9 miles    
Events Rain , Snow    
Averages and records for this station are not official NWS values.
T = Trace of Precipitation, MM = Missing Value Source: NWS Daily Summary

Daily Weather History Graph

Daily Weather History Graph

Search for Another Location

Airport or City:

Astronomy

Apr. 04, 2014 Rise Set
Actual Time 6:50 AM PDT 7:43 PM PDT
Civil Twilight 6:21 AM PDT 8:11 PM PDT
Nautical Twilight 5:47 AM PDT 8:45 PM PDT
Astronomical Twilight 5:12 AM PDT 9:21 PM PDT
Moon 10:07 AM PDT (4/4) 12:11 AM PDT (4/4)
Length of Visible Light 13h 49m
Length of Day
12h 52m
Waxing Crescent, 26% of the Moon is Illuminated
Apr 4
Waxing Crescent
Apr 7
First Quarter
Apr 15
Full
Apr 22
Last Quarter
Apr 28
New

Hourly Weather History & Observations

Time (PDT) Temp. Windchill Dew Point Humidity Pressure Visibility Wind Dir Wind Speed Gust Speed Precip Events Conditions
12:56 AM 34.0 °F 26.6 °F 28.9 °F 82% 29.98 in 4.0 mi South 9.2 mph - 0.00 in Snow Light Snow
1:37 AM 34.0 °F 28.0 °F 30.0 °F 85% 29.96 in 6.0 mi South 6.9 mph - 0.00 in Snow Light Snow
1:44 AM 34.0 °F 27.2 °F 30.0 °F 85% 29.96 in 6.0 mi SSE 8.1 mph - 0.00 in Snow Light Snow
1:56 AM 34.0 °F 27.2 °F 30.9 °F 89% 29.97 in 6.0 mi South 8.1 mph - 0.00 in Snow Light Snow
2:38 AM 34.0 °F 27.2 °F 30.9 °F 89% 29.95 in 9.0 mi SSW 8.1 mph - 0.00 in Snow Light Snow
2:56 AM 33.1 °F 26.1 °F 30.9 °F 92% 29.96 in 6.0 mi SSW 8.1 mph - 0.00 in Snow Light Snow
3:37 AM 34.0 °F 28.0 °F 30.9 °F 89% 29.94 in 10.0 mi South 6.9 mph - 0.00 in   Overcast
3:56 AM 34.0 °F 26.6 °F 30.9 °F 89% 29.95 in 10.0 mi South 9.2 mph - 0.00 in   Overcast
4:56 AM 33.1 °F 24.9 °F 32.0 °F 96% 29.96 in 6.0 mi South 10.4 mph - 0.00 in Snow Light Snow
5:56 AM 33.1 °F 25.5 °F 32.0 °F 96% 29.96 in 10.0 mi South 9.2 mph - 0.00 in   Overcast
6:05 AM 33.1 °F 25.5 °F 32.0 °F 96% 29.93 in 10.0 mi South 9.2 mph - N/A   Overcast
6:13 AM 33.1 °F 25.5 °F 32.0 °F 96% 29.93 in 10.0 mi South 9.2 mph - N/A   Overcast
6:53 AM 33.8 °F 26.4 °F 32.0 °F 93% 29.94 in 10.0 mi South 9.2 mph - N/A   Overcast
6:56 AM 33.1 °F 25.5 °F 32.0 °F 96% 29.98 in 10.0 mi South 9.2 mph - N/A   Overcast
7:48 AM 34.0 °F 27.2 °F 33.1 °F 96% 29.95 in 10.0 mi South 8.1 mph - N/A   Overcast
7:56 AM 34.0 °F 28.0 °F 33.1 °F 96% 29.99 in 10.0 mi SSE 6.9 mph - N/A   Overcast
8:49 AM 35.1 °F 29.3 °F 34.0 °F 96% 29.96 in 10.0 mi South 6.9 mph - N/A   Overcast
8:56 AM 35.1 °F 29.3 °F 33.1 °F 92% 30.00 in 10.0 mi South 6.9 mph - N/A   Overcast
9:47 AM 37.0 °F 33.3 °F 35.1 °F 93% 29.96 in 10.0 mi SSE 4.6 mph - N/A   Overcast
9:56 AM 37.0 °F 32.4 °F 35.1 °F 93% 30.01 in 10.0 mi SE 5.8 mph - N/A   Overcast
10:08 AM 37.0 °F 33.3 °F 34.0 °F 89% 29.97 in 9.0 mi SSE 4.6 mph - N/A   Overcast
10:23 AM 39.9 °F 35.1 °F 35.1 °F 83% 29.97 in 10.0 mi Variable 6.9 mph - N/A   Overcast
10:56 AM 41.0 °F 37.1 °F 35.1 °F 79% 29.99 in 10.0 mi South 5.8 mph - N/A   Mostly Cloudy
11:11 AM 39.0 °F 34.8 °F 33.1 °F 79% 29.97 in 10.0 mi South 5.8 mph - N/A   Partly Cloudy
11:40 AM 42.1 °F 38.4 °F 34.0 °F 73% 29.97 in 10.0 mi Variable 5.8 mph - N/A   Mostly Cloudy
11:48 AM 41.0 °F 38.0 °F 34.0 °F 76% 29.97 in 10.0 mi Variable 4.6 mph - N/A   Mostly Cloudy
11:56 AM 39.9 °F 35.8 °F 34.0 °F 79% 30.00 in 10.0 mi South 5.8 mph - N/A   Overcast
12:18 PM 43.0 °F 40.3 °F 37.0 °F 80% 29.97 in 10.0 mi Variable 4.6 mph - N/A   Mostly Cloudy
12:25 PM 42.1 °F 38.4 °F 35.1 °F 76% 29.97 in 10.0 mi Variable 5.8 mph - N/A   Mostly Cloudy
12:27 PM 42.1 °F 40.2 °F 35.1 °F 76% 29.97 in 10.0 mi Variable 3.5 mph - N/A   Mostly Cloudy
12:47 PM 45.0 °F 41.8 °F 35.1 °F 68% 29.97 in 10.0 mi Variable 5.8 mph - N/A   Mostly Cloudy
12:56 PM 44.1 °F 40.1 °F 35.1 °F 71% 29.99 in 10.0 mi South 6.9 mph - N/A   Mostly Cloudy
1:08 PM 46.9 °F - 36.0 °F 66% 29.96 in 10.0 mi SSE 8.1 mph - N/A   Scattered Clouds
1:56 PM 48.0 °F - 35.1 °F 61% 29.97 in 10.0 mi Variable 3.5 mph - N/A   Mostly Cloudy
2:56 PM 45.0 °F - 32.0 °F 60% 29.98 in 10.0 mi Calm Calm - N/A   Mostly Cloudy
3:56 PM 45.0 °F - 34.0 °F 65% 29.96 in 10.0 mi Calm Calm - N/A   Mostly Cloudy
4:56 PM 46.0 °F 43.9 °F 33.1 °F 61% 29.96 in 10.0 mi WSW 4.6 mph - N/A   Mostly Cloudy
5:56 PM 42.1 °F 40.2 °F 36.0 °F 79% 29.99 in 7.0 mi Variable 3.5 mph - 0.00 in Rain Light Rain
6:56 PM 41.0 °F 36.4 °F 36.0 °F 82% 30.00 in 10.0 mi NNW 6.9 mph - 0.00 in   Mostly Cloudy
7:56 PM 39.0 °F 35.7 °F 35.1 °F 86% 30.01 in 10.0 mi Variable 4.6 mph - N/A   Mostly Cloudy
8:56 PM 37.0 °F 31.6 °F 33.1 °F 86% 30.03 in 10.0 mi Variable 6.9 mph - N/A   Overcast
9:16 PM 37.9 °F 34.4 °F 33.1 °F 83% 29.99 in 10.0 mi WNW 4.6 mph - N/A   Overcast
9:56 PM 37.9 °F 33.5 °F 32.0 °F 79% 30.03 in 10.0 mi WSW 5.8 mph - N/A   Overcast
10:56 PM 36.0 °F 29.6 °F 32.0 °F 86% 30.03 in 9.0 mi SSW 8.1 mph - 0.00 in Snow Light Snow
11:29 PM 36.0 °F 28.0 °F 32.0 °F 86% 30.01 in 10.0 mi SSW 11.5 mph - 0.00 in   Overcast
11:56 PM 36.0 °F 29.0 °F 33.1 °F 89% 30.04 in 10.0 mi South 9.2 mph - 0.00 in   Overcast